GW6292 Weather Reports


Display with metric or nautical units.
time (UTC)temp
F
wind
direction
speed
MPH
gust
MPH
rain 1hr
in
rain 24hr
in
rain mn
in
humidity
%
barometer
mb
20260510060850 52 24 0.0 0.0 0.00 0.00 0.00 95 1010.9
20260510060347 52 24 0.0 0.0 0.00 0.00 0.00 95 1010.9
20260510055844 53 24 0.0 0.0 0.00 0.00 0.00 95 1010.8
20260510055343 53 24 0.0 0.0 0.00 0.00 0.00 95 1011.0
20260510054842 53 24 0.0 0.0 0.00 0.00 0.00 95 1011.0
20260510054338 53 24 0.0 0.0 0.00 0.00 0.00 95 1010.9
20260510053833 53 24 0.0 0.0 0.00 0.00 0.00 95 1011.0
20260510053329 53 24 0.0 0.0 0.00 0.00 0.00 95 1011.0
20260510052825 53 24 0.0 0.0 0.00 0.00 0.00 94 1011.1
20260510052321 53 24 0.0 0.0 0.00 0.00 0.00 94 1011.1
20260510051818 54 24 0.0 0.0 0.00 0.00 0.00 94 1011.0
20260510051314 54 24 0.0 0.0 0.00 0.00 0.00 94 1011.0
20260510050811 54 24 0.0 0.0 0.00 0.00 0.00 94 1011.0
20260510050308 54 24 0.0 0.0 0.00 0.00 0.00 94 1011.1
20260510045805 54 24 0.0 0.0 0.00 0.00 0.00 94 1010.9
20260510045305 54 24 0.0 0.0 0.00 0.00 0.00 93 1011.1
20260510044759 54 24 0.0 0.0 0.00 0.00 0.00 93 1011.2
20260510044256 55 24 0.0 0.0 0.00 0.00 0.00 93 1011.1
20260510043752 55 24 0.0 0.0 0.00 0.00 0.00 93 1011.2
20260510043248 55 24 0.0 0.0 0.00 0.00 0.00 93 1011.1
20260510042746 55 24 0.0 0.0 0.00 0.00 0.00 92 1011.1
20260510042241 55 24 0.0 0.0 0.00 0.00 0.00 92 1011.0
20260510041738 55 24 0.0 0.0 0.00 0.00 0.00 92 1011.0
20260510041236 55 24 0.0 0.0 0.00 0.00 0.00 91 1011.0
20260510040733 56 24 0.0 0.0 0.00 0.00 0.00 91 1011.1
20260510040230 56 24 1.0 1.0 0.00 0.00 0.00 90 1011.2
20260510035725 56 24 0.0 1.0 0.00 0.00 0.00 90 1011.0
20260510035221 57 24 0.0 0.0 0.00 0.00 0.00 90 1010.8
20260510034717 57 24 0.0 0.0 0.00 0.00 0.00 89 1011.1
20260510034215 57 24 0.0 0.0 0.00 0.00 0.00 89 1010.7
20260510033711 57 24 0.0 0.0 0.00 0.00 0.00 88 1010.9
20260510033209 58 24 0.0 0.0 0.00 0.00 0.00 87 1010.9
20260510032705 58 24 0.0 0.0 0.00 0.00 0.00 86 1010.9
20260510032201 58 24 0.0 0.0 0.00 0.00 0.00 85 1010.8
20260510031655 59 24 0.0 0.0 0.00 0.00 0.00 85 1010.9
20260510031152 59 24 0.0 0.0 0.00 0.00 0.00 85 1011.0
20260510030646 58 24 2.0 2.0 0.00 0.00 0.00 87 1010.9
20260510030144 58 24 1.0 1.0 0.00 0.00 0.00 87 1010.9
20260510025641 58 24 0.0 0.0 0.00 0.00 0.00 87 1010.8
20260510025138 58 24 0.0 0.0 0.00 0.00 0.00 87 1010.8
20260510024635 58 24 0.0 0.0 0.00 0.00 0.00 87 1010.8
20260510024132 58 24 0.0 0.0 0.00 0.00 0.00 86 1010.6
20260510023627 58 24 0.0 0.0 0.00 0.00 0.00 86 1010.8
20260510023125 58 24 0.0 0.0 0.00 0.00 0.00 87 1010.9
20260510022625 58 24 0.0 0.0 0.00 0.00 0.00 86 1010.7
20260510022120 58 24 0.0 0.0 0.00 0.00 0.00 86 1010.6
20260510021616 59 24 0.0 0.0 0.00 0.00 0.00 85 1010.5
20260510021114 59 24 0.0 0.0 0.00 0.00 0.00 84 1010.7
20260510020607 59 24 0.0 0.0 0.00 0.00 0.00 84 1010.7
20260510015559 59 24 0.0 0.0 0.00 0.00 0.00 83 1010.5
20260510015056 60 24 0.0 0.0 0.00 0.00 0.00 83 1010.4
20260510014551 60 24 0.0 0.0 0.00 0.00 0.00 83 1010.7
20260510014049 60 24 0.0 0.0 0.00 0.00 0.00 83 1010.4
20260510013544 60 24 0.0 0.0 0.00 0.00 0.00 83 1010.5
20260510013040 60 24 0.0 0.0 0.00 0.00 0.00 82 1010.3
20260510012539 60 24 0.0 0.0 0.00 0.00 0.00 82 1010.2
20260510012036 60 24 0.0 0.0 0.00 0.00 0.00 82 1010.0
20260510011536 60 24 0.0 0.0 0.00 0.00 0.00 82 1009.9
20260510011032 60 24 0.0 0.0 0.00 0.00 0.00 82 1009.9
20260510010529 61 24 0.0 0.0 0.00 0.00 0.00 81 1009.9
20260510010026 61 24 0.0 0.0 0.00 0.00 0.00 80 1009.7
20260510005521 61 24 0.0 0.0 0.00 0.00 0.00 80 1009.9
20260510005019 62 24 0.0 0.0 0.00 0.00 0.00 80 1009.3
20260510004516 62 23 0.0 0.0 0.00 0.00 0.00 79 1009.6
20260510004015 62 23 0.0 0.0 0.00 0.00 0.00 78 1009.8
20260510003511 63 24 0.0 0.0 0.00 0.00 0.00 78 1009.5
20260510003006 63 23 0.0 0.0 0.00 0.00 0.00 76 1009.8
20260510002502 64 23 0.0 0.0 0.00 0.00 0.00 76 1009.2
20260510001959 64 23 0.0 0.0 0.00 0.00 0.00 75 1009.5
20260510001456 64 23 0.0 0.0 0.00 0.00 0.00 73 1009.4
20260510000954 65 23 0.0 0.0 0.00 0.00 0.00 72 1009.5
20260510000449 66 23 0.0 0.0 0.00 0.00 0.00 71 1009.4
20260509235946 66 23 0.0 0.0 0.00 0.00 0.00 70 1009.4
20260509235443 67 23 0.0 1.0 0.00 0.00 0.00 69 1009.3
20260509234940 67 23 1.0 1.0 0.00 0.00 0.00 66 1009.5
20260509234436 67 23 0.0 0.0 0.00 0.00 0.00 64 1009.3
20260509233934 68 23 0.0 0.0 0.00 0.00 0.00 64 1009.3
20260509233432 68 23 0.0 0.0 0.00 0.00 0.00 61 1009.1
20260509232927 68 23 1.0 1.0 0.00 0.00 0.00 60 1009.3
20260509232426 69 23 0.0 0.0 0.00 0.00 0.00 61 1009.1
20260509231921 69 23 0.0 1.0 0.00 0.00 0.00 58 1008.8
20260509231418 69 23 0.0 0.0 0.00 0.00 0.00 59 1009.1
20260509230916 69 23 0.0 0.0 0.00 0.00 0.00 57 1009.0
20260509230413 70 23 0.0 0.0 0.00 0.00 0.00 58 1008.9
20260509225908 70 23 1.0 1.0 0.00 0.00 0.00 56 1009.2
20260509225405 71 23 0.0 0.0 0.00 0.00 0.00 59 1009.0
20260509224901 71 23 0.0 1.0 0.00 0.00 0.00 54 1008.9
20260509224357 71 23 0.0 0.0 0.00 0.00 0.00 51 1008.9
20260509223855 71 23 0.0 0.0 0.00 0.00 0.00 55 1008.9
20260509223351 72 23 0.0 0.0 0.00 0.00 0.00 55 1009.1
20260509222848 72 23 1.0 2.0 0.00 0.00 0.00 50 1008.9
20260509222349 72 23 1.0 2.0 0.00 0.00 0.00 50 1009.1
20260509221844 73 23 1.0 1.0 0.00 0.00 0.00 50 1009.1
20260509221342 73 23 0.0 0.0 0.00 0.00 0.00 48 1009.2
20260509220843 73 23 0.0 1.0 0.00 0.00 0.00 51 1009.0
20260509220339 73 22 1.0 2.0 0.00 0.00 0.00 49 1008.8
20260509215834 72 23 0.0 0.0 0.00 0.00 0.00 49 1009.1
20260509215331 72 23 1.0 2.0 0.00 0.00 0.00 49 1009.1
20260509214828 73 23 1.0 1.0 0.00 0.00 0.00 47 1009.1
20260509214326 74 23 2.0 2.0 0.00 0.00 0.00 46 1009.0
20260509213823 75 23 4.0 4.0 0.00 0.00 0.00 44 1009.1
20260509213318 75 22 2.0 2.0 0.00 0.00 0.00 44 1009.1
20260509212816 75 22 3.0 4.0 0.00 0.00 0.00 45 1009.0
20260509212313 74 22 0.0 1.0 0.00 0.00 0.00 46 1008.9
20260509211809 73 22 1.0 2.0 0.00 0.00 0.00 48 1009.1
20260509211305 72 23 2.0 2.0 0.00 0.00 0.00 51 1009.0
20260509210802 72 23 1.0 2.0 0.00 0.00 0.00 54 1009.0
20260509210300 72 23 2.0 3.0 0.00 0.00 0.00 52 1009.1
20260509205759 73 23 0.0 0.0 0.00 0.00 0.00 54 1009.2
20260509205254 73 23 1.0 1.0 0.00 0.00 0.00 51 1009.1
20260509204750 74 22 2.0 3.0 0.00 0.00 0.00 49 1009.1
20260509204246 73 22 0.0 1.0 0.00 0.00 0.00 53 1009.0
20260509203742 73 23 2.0 2.0 0.00 0.00 0.00 52 1009.0
20260509203241 73 23 2.0 3.0 0.00 0.00 0.00 50 1008.9
20260509202736 74 22 2.0 2.0 0.00 0.00 0.00 50 1008.8
20260509202232 74 22 2.0 2.0 0.00 0.00 0.00 53 1008.9
20260509201727 72 23 2.0 2.0 0.00 0.00 0.00 54 1008.9
20260509201224 71 22 0.0 1.0 0.00 0.00 0.00 56 1009.0
20260509200720 71 23 1.0 1.0 0.00 0.00 0.00 57 1009.0
20260509200215 71 23 3.0 3.0 0.00 0.00 0.00 56 1009.2
20260509195711 71 23 3.0 3.0 0.00 0.00 0.00 54 1009.2
20260509195207 71 23 0.0 1.0 0.00 0.00 0.00 55 1009.5
20260509194706 71 23 1.0 2.0 0.00 0.00 0.00 55 1009.6
20260509194204 71 23 2.0 3.0 0.00 0.00 0.00 54 1009.3
20260509193700 70 23 1.0 2.0 0.00 0.00 0.00 55 1009.6
20260509193155 70 23 1.0 2.0 0.00 0.00 0.00 54 1009.7
20260509192652 70 23 1.0 2.0 0.00 0.00 0.00 56 1009.7
20260509192147 70 23 0.0 0.0 0.00 0.00 0.00 59 1010.0
20260509191647 70 23 0.0 1.0 0.00 0.00 0.00 56 1009.9
20260509191144 71 23 0.0 0.0 0.00 0.00 0.00 52 1010.0
20260509190640 71 23 2.0 2.0 0.00 0.00 0.00 52 1009.9
20260509190138 71 23 1.0 1.0 0.00 0.00 0.00 53 1009.8
20260509185636 69 23 1.0 1.0 0.00 0.00 0.00 54 1010.0
20260509185131 70 23 1.0 2.0 0.00 0.00 0.00 55 1010.1
20260509184629 70 23 0.0 0.0 0.00 0.00 0.00 54 1010.2
20260509184126 70 23 2.0 3.0 0.00 0.00 0.00 53 1010.1
20260509183622 71 23 2.0 3.0 0.00 0.00 0.00 52 1010.3
20260509183117 70 23 0.0 0.0 0.00 0.00 0.00 60 1010.3
20260509182614 70 23 0.0 0.0 0.00 0.00 0.00 55 1010.3
20260509182110 69 23 1.0 2.0 0.00 0.00 0.00 55 1010.4
20260509181609 69 23 1.0 2.0 0.00 0.00 0.00 54 1010.3
20260509181106 68 23 0.0 0.0 0.00 0.00 0.00 55 1010.7
20260509180602 68 23 0.0 0.0 0.00 0.00 0.00 55 1010.8
20260509180059 68 23 0.0 0.0 0.00 0.00 0.00 57 1010.9
20260509175554 68 23 1.0 1.0 0.00 0.00 0.00 57 1011.0
20260509175052 68 23 1.0 1.0 0.00 0.00 0.00 57 1011.0
20260509174548 68 23 1.0 2.0 0.00 0.00 0.00 56 1010.9
20260509174044 68 23 0.0 1.0 0.00 0.00 0.00 57 1011.2
20260509173544 68 23 3.0 4.0 0.00 0.00 0.00 55 1011.4
20260509173040 68 23 1.0 1.0 0.00 0.00 0.00 57 1011.1
20260509172537 68 23 0.0 1.0 0.00 0.00 0.00 57 1011.1
20260509172033 68 23 3.0 3.0 0.00 0.00 0.00 57 1011.1
20260509171529 67 23 1.0 1.0 0.00 0.00 0.00 59 1011.3
20260509171026 66 23 0.0 0.0 0.00 0.00 0.00 60 1011.5
20260509170521 66 23 1.0 1.0 0.00 0.00 0.00 60 1011.3
20260509170017 67 23 1.0 1.0 0.00 0.00 0.00 57 1011.3
20260509165516 67 23 1.0 1.0 0.00 0.00 0.00 59 1011.2
20260509165012 67 23 1.0 1.0 0.00 0.00 0.00 58 1011.4
20260509164508 67 23 1.0 1.0 0.00 0.00 0.00 56 1011.4
20260509164004 67 23 0.0 0.0 0.00 0.00 0.00 59 1011.3
20260509163502 67 23 3.0 4.0 0.00 0.00 0.00 56 1011.3
20260509163001 68 23 3.0 3.0 0.00 0.00 0.00 56 1011.2
20260509162500 67 23 1.0 2.0 0.00 0.00 0.00 56 1011.2
20260509161955 66 23 2.0 3.0 0.00 0.00 0.00 57 1011.5
20260509161452 66 23 2.0 2.0 0.00 0.00 0.00 59 1011.5
20260509160947 65 23 0.0 1.0 0.00 0.00 0.00 59 1011.5
20260509160443 65 23 0.0 1.0 0.00 0.00 0.00 58 1011.5
20260509155938 64 23 2.0 2.0 0.00 0.00 0.00 59 1011.5
20260509155435 64 23 0.0 1.0 0.00 0.00 0.00 60 1011.8
20260509154932 64 23 2.0 2.0 0.00 0.00 0.00 58 1011.3
20260509154428 64 23 2.0 2.0 0.00 0.00 0.00 59 1011.8
20260509153925 64 23 4.0 6.0 0.00 0.00 0.00 58 1011.8
20260509153422 64 23 0.0 1.0 0.00 0.00 0.00 58 1011.7
20260509152919 65 23 2.0 2.0 0.00 0.00 0.00 56 1011.5
20260509152415 65 23 3.0 3.0 0.00 0.00 0.00 56 1011.8
20260509151912 65 24 2.0 2.0 0.00 0.00 0.00 56 1011.8
20260509151408 65 23 2.0 2.0 0.00 0.00 0.00 54 1011.8
20260509150907 65 24 2.0 4.0 0.00 0.00 0.00 57 1012.0
20260509150404 64 23 2.0 2.0 0.00 0.00 0.00 58 1011.9
20260509145902 63 23 2.0 2.0 0.00 0.00 0.00 58 1011.8
20260509145401 64 23 0.0 1.0 0.00 0.00 0.00 58 1012.1
20260509144858 63 23 2.0 2.0 0.00 0.00 0.00 59 1012.1
20260509144354 62 23 1.0 2.0 0.00 0.00 0.00 61 1012.3
20260509143851 62 23 1.0 2.0 0.00 0.00 0.00 60 1012.3
20260509143349 62 23 2.0 3.0 0.00 0.00 0.00 61 1012.4
20260509142845 62 23 1.0 1.0 0.00 0.00 0.00 61 1012.5
20260509142341 62 23 1.0 1.0 0.00 0.00 0.00 61 1012.4
20260509141837 61 23 1.0 2.0 0.00 0.00 0.00 61 1012.3
20260509141334 61 23 2.0 2.0 0.00 0.00 0.00 61 1012.3
20260509140830 62 23 2.0 3.0 0.00 0.00 0.00 61 1012.1
20260509140328 61 23 0.0 1.0 0.00 0.00 0.00 61 1012.0
20260509135826 61 23 1.0 1.0 0.00 0.00 0.00 61 1012.0
20260509135323 61 23 2.0 3.0 0.00 0.00 0.00 61 1012.1
20260509134820 61 23 0.0 1.0 0.00 0.00 0.00 60 1012.1
20260509134317 61 23 2.0 2.0 0.00 0.00 0.00 61 1012.3
20260509133814 61 23 1.0 2.0 0.00 0.00 0.00 60 1012.0
20260509133311 62 23 4.0 7.0 0.00 0.00 0.00 59 1012.4
20260509132809 61 23 2.0 2.0 0.00 0.00 0.00 60 1012.1
20260509132308 61 23 1.0 1.0 0.00 0.00 0.00 61 1012.3
20260509131804 61 23 0.0 0.0 0.00 0.00 0.00 60 1012.0
20260509131301 61 23 4.0 4.0 0.00 0.00 0.00 58 1012.4
20260509130757 61 23 1.0 1.0 0.00 0.00 0.00 59 1012.4
20260509130253 61 23 3.0 4.0 0.00 0.00 0.00 58 1012.3
20260509125750 61 23 0.0 1.0 0.00 0.00 0.00 58 1012.3
20260509125247 61 23 2.0 3.0 0.00 0.00 0.00 57 1012.3
20260509124743 62 23 2.0 3.0 0.00 0.00 0.00 56 1012.1
20260509124239 61 23 1.0 2.0 0.00 0.00 0.00 57 1012.1
20260509123738 61 23 1.0 1.0 0.00 0.00 0.00 57 1012.4
20260509123235 61 24 0.0 0.0 0.00 0.00 0.00 57 1012.3
20260509122730 61 24 1.0 2.0 0.00 0.00 0.00 58 1012.0
20260509122227 60 23 2.0 3.0 0.00 0.00 0.00 58 1012.0
20260509121724 60 23 3.0 3.0 0.00 0.00 0.00 59 1012.0
20260509121222 60 23 0.0 0.0 0.00 0.00 0.00 60 1012.1
20260509120720 59 24 2.0 2.0 0.00 0.00 0.00 58 1012.0
20260509120217 59 23 0.0 0.0 0.00 0.00 0.00 62 1012.0
20260509115715 59 23 0.0 0.0 0.00 0.00 0.00 60 1012.1
20260509115212 59 23 2.0 2.0 0.00 0.00 0.00 60 1011.9
20260509114710 59 23 1.0 1.0 0.00 0.00 0.00 58 1011.8
20260509114209 59 24 2.0 3.0 0.00 0.00 0.00 58 1012.0
20260509113707 59 23 1.0 1.0 0.00 0.00 0.00 59 1011.9
20260509113204 59 23 0.0 0.0 0.00 0.00 0.00 58 1011.7
20260509112700 59 23 2.0 3.0 0.00 0.00 0.00 60 1011.8
20260509112157 58 24 3.0 3.0 0.00 0.00 0.00 59 1011.7
20260509111655 57 24 0.0 0.0 0.00 0.00 0.00 63 1011.6
20260509111151 56 24 0.0 0.0 0.00 0.00 0.00 67 1011.6
20260509110648 56 24 1.0 1.0 0.00 0.00 0.00 65 1011.5
20260509110145 55 24 1.0 1.0 0.00 0.00 0.00 64 1011.6
20260509105643 55 24 0.0 0.0 0.00 0.00 0.00 70 1011.6
20260509105141 55 24 0.0 0.0 0.00 0.00 0.00 66 1011.6
20260509104638 55 24 0.0 0.0 0.00 0.00 0.00 64 1011.5
20260509104134 55 24 0.0 0.0 0.00 0.00 0.00 66 1011.4
20260509103632 55 24 0.0 0.0 0.00 0.00 0.00 66 1011.4
20260509103130 55 24 0.0 0.0 0.00 0.00 0.00 65 1011.4
20260509102627 55 24 0.0 0.0 0.00 0.00 0.00 66 1011.3
20260509102124 55 24 0.0 0.0 0.00 0.00 0.00 65 1011.3
20260509101620 55 24 0.0 0.0 0.00 0.00 0.00 64 1011.3
20260509101117 55 24 0.0 0.0 0.00 0.00 0.00 65 1011.5
20260509100614 55 24 0.0 0.0 0.00 0.00 0.00 65 1011.3
20260509100112 56 24 0.0 0.0 0.00 0.00 0.00 65 1011.4
20260509095608 56 24 0.0 0.0 0.00 0.00 0.00 65 1011.2
20260509095106 56 24 0.0 0.0 0.00 0.00 0.00 64 1011.3
20260509094601 56 24 0.0 0.0 0.00 0.00 0.00 62 1011.3
20260509094059 56 24 0.0 0.0 0.00 0.00 0.00 65 1011.2
20260509093557 56 24 0.0 0.0 0.00 0.00 0.00 63 1011.4
20260509093054 56 24 0.0 0.0 0.00 0.00 0.00 61 1011.4
20260509092552 56 24 0.0 0.0 0.00 0.00 0.00 63 1011.4
20260509092051 56 24 0.0 1.0 0.00 0.00 0.00 63 1011.4
20260509091548 57 24 0.0 0.0 0.00 0.00 0.00 61 1011.4
20260509091044 57 24 0.0 0.0 0.00 0.00 0.00 62 1011.4
20260509090542 57 24 0.0 1.0 0.00 0.00 0.00 61 1011.4
20260509090040 57 24 0.0 1.0 0.00 0.00 0.00 59 1011.6
20260509085536 57 24 0.0 0.0 0.00 0.00 0.00 60 1011.5
20260509085032 57 24 0.0 1.0 0.00 0.00 0.00 61 1011.6
20260509084530 57 24 1.0 2.0 0.00 0.00 0.00 59 1011.6
20260509084027 57 24 0.0 1.0 0.00 0.00 0.00 60 1011.9
20260509083524 57 24 0.0 1.0 0.00 0.00 0.00 60 1011.8
20260509083020 57 24 1.0 1.0 0.00 0.00 0.00 60 1011.9
20260509082518 57 24 0.0 0.0 0.00 0.00 0.00 61 1012.0
20260509082015 57 24 0.0 0.0 0.00 0.00 0.00 62 1012.0
20260509081512 57 24 2.0 2.0 0.00 0.00 0.00 60 1012.1
20260509081009 57 24 1.0 1.0 0.00 0.00 0.00 62 1012.1
20260509080507 57 24 1.0 1.0 0.00 0.00 0.00 61 1012.4
20260509080005 57 24 0.0 0.0 0.00 0.00 0.00 61 1012.3
20260509075502 57 24 0.0 1.0 0.00 0.00 0.00 59 1012.4
20260509074959 57 24 2.0 2.0 0.00 0.00 0.00 58 1012.1
20260509074457 57 24 1.0 1.0 0.00 0.00 0.00 59 1012.3
20260509073953 57 24 0.0 1.0 0.00 0.00 0.00 58 1012.4
20260509073449 57 24 1.0 1.0 0.00 0.00 0.00 59 1012.1
20260509072946 57 24 1.0 1.0 0.00 0.00 0.00 58 1012.1
20260509072443 57 24 2.0 2.0 0.00 0.00 0.00 59 1012.4
20260509071940 57 24 1.0 2.0 0.00 0.00 0.00 59 1012.0
20260509071436 56 24 2.0 3.0 0.00 0.00 0.00 60 1012.0
20260509070934 55 24 0.0 0.0 0.00 0.00 0.00 63 1012.1
20260509070431 55 24 1.0 1.0 0.00 0.00 0.00 66 1012.3
20260509065926 55 24 0.0 0.0 0.00 0.00 0.00 64 1012.4
20260509065422 55 24 0.0 1.0 0.00 0.00 0.00 65 1012.3
20260509064919 55 24 0.0 0.0 0.00 0.00 0.00 65 1012.3
20260509064416 55 24 0.0 0.0 0.00 0.00 0.00 63 1012.3
20260509063914 54 24 1.0 1.0 0.00 0.00 0.00 65 1012.3
20260509063409 54 24 0.0 0.0 0.00 0.00 0.00 67 1012.4
20260509062907 54 24 0.0 0.0 0.00 0.00 0.00 67 1012.5
20260509062404 53 24 0.0 0.0 0.00 0.00 0.00 69 1012.6
20260509061901 53 24 0.0 0.0 0.00 0.00 0.00 69 1012.7
20260509061359 53 24 0.0 0.0 0.00 0.00 0.00 71 1012.7